Find Local Weather

World > North America > United States > California

Davis, California Regional Weather

Lat: 38.55N, Lon: 121.74W
Wx Zone: CAZ017
Feedback
Expires:201809221900;;045681
ASUS46 KSTO 221815
RWRCA 

NORTHERN AND CENTRAL CA REGIONAL WEATHER ROUNDUP
NATIONAL WEATHER SERVICE SACRAMENTO CA 
1100 AM PDT SAT SEP 22 2018

NOTE: FAIR INDICATES FEW OR NO CLOUDS BELOW 12,000 FEET WITH NO
SIGNIFICANT WEATHER AND/OR OBSTRUCTIONS TO VISIBILITY.


CAZ016>018-221900-
SOUTHERN SACRAMENTO VALLEY
  
CITY           SKY/WX    TMP DP  RH WIND       PRES   REMARKS
AUBURN         SUNNY     84  34  16 S7        30.00S                  
LINCOLN        FAIR      79  41  25 S8        29.95F                  
MARYSVILLE     SUNNY     75  48  38 VRB6      29.96S                  
SAC INTL ARPT  MOSUNNY   71  51  49 S5        29.95F                  
MATHER AIRPORT SUNNY     75  45  33 SW5       29.94F                  
DOWNTOWN SAC   N/A       75  MM  MM MISG
SAC EXEC ARPT  SUNNY     71  52  50 CALM      29.96S                  
VACAVILLE      SUNNY     75  48  38 S5        29.97S                  
$$

SKY/WX - Weather  TMP - Temperature  DP - Dew Point  RH - Relative Humidity
WIND - Wind Direction/Speed PRES - Barometric Pressure